Probability
19 18 15 13 11 10 10 13 15 14 13 10 8 8 9 8 8 9 6 4 5 5 5 6 6 5 7 9 9 9 9 8 6 5 5 7 9 10 10 8 6 6 7
19 18 16 14 12 11 11 14 16 15 14 11 9 8 9 10 10 9 6 4 4 4 4 4 5 6 6 7 8 7 7 7 7 6 6 7 9 9 9 8 7 7 9
20 18 17 15 12 12 15 17 17 17 14 12 10 9 10 12 12 10 7 5 4 4 3 3 4 5 5 5 6 6 7 8 8 8 8 9 10 10 9 8 7 9 10
23 22 20 17 13 14 17 18 18 17 15 12 10 9 11 12 13 11 8 7 6 5 4 4 5 5 6 6 6 6 8 11 11 11 10 11 12 12 10 8 9 10 11
28 27 24 20 16 15 17 18 18 17 15 13 10 10 11 12 11 10 9 9 8 7 6 6 6 8 9 8 6 7 9 12 14 14 13 13 14 14 12 10 10 10 10
30 27 25 23 21 18 16 16 16 16 16 14 12 11 12 10 7 7 8 9 9 9 8 8 8 10 11 9 6 5 6 8 12 15 15 15 15 16 15 12 10 10 10
27 26 25 25 25 23 20 18 17 15 15 14 14 13 12 8 4 3 4 7 10 10 11 11 10 9 10 10 8 6 5 6 9 13 16 16 16 18 18 15 13 12 11
24 25 27 29 30 29 28 27 23 19 16 15 15 15 12 8 4 2 2 5 10 11 13 12 10 8 7 7 8 8 8 7 7 9 12 13 13 15 18 18 16 14 11
21 24 28 32 33 33 33 33 30 26 22 19 17 16 14 10 6 2 2 6 11 14 14 12 9 6 4 4 5 8 11 10 7 5 6 7 8 9 12 15 15 11 9
22 25 29 31 32 32 33 33 32 30 28 24 21 18 17 13 6 2 2 8 15 17 16 12 8 5 3 2 3 7 10 11 9 7 6 5 5 5 7 10 11 9 8
27 28 29 30 30 31 32 33 33 32 31 28 24 19 16 12 6 1 2 8 15 17 14 11 8 5 2 0 1 3 6 8 10 11 10 9 9 9 9 9 10 10 10
33 32 31 32 32 31 31 33 33 32 31 28 24 19 15 11 6 2 1 4 8 12 11 8 6 4 1 0 0 1 2 4 8 10 10 10 10 11 12 12 11 11 12
38 37 35 34 33 32 32 31 30 29 28 26 23 19 16 12 8 5 2 1 3 7 8 5 3 1 0 0 0 1 2 5 8 9 8 7 8 10 12 12 13 13 13
40 39 37 35 33 33 32 30 27 25 24 24 22 19 17 15 12 9 7 5 4 5 6 5 4 3 3 3 3 4 6 8 9 9 8 7 6 7 9 12 12 12 11
37 36 34 32 32 32 31 29 27 24 20 20 19 18 17 16 12 9 8 7 6 5 5 6 8 8 8 7 8 8 8 9 9 9 9 8 6 5 6 9 10 9 8
33 31 29 30 31 33 33 30 27 21 14 12 12 13 13 11 7 5 5 5 4 3 5 6 8 9 9 9 9 9 9 8 8 9 9 9 7 5 4 6 7 7 6
28 27 27 29 32 35 35 32 26 20 14 9 6 5 6 4 2 1 1 1 1 2 4 7 8 8 7 7 7 7 7 6 6 8 9 8 7 5 4 4 5 7 7
24 24 25 29 33 36 36 32 27 24 20 15 8 3 1 1 0 0 0 2 3 3 5 7 8 8 6 5 4 6 6 4 4 6 7 7 7 6 4 4 5 7 7
22 22 24 27 30 33 35 33 29 27 25 21 14 7 3 1 0 0 1 3 5 5 5 7 7 7 6 5 5 7 7 6 6 6 7 7 7 6 5 4 6 6 6
22 20 21 24 27 30 33 33 30 27 25 22 16 11 8 4 3 2 2 4 5 6 6 6 6 6 5 5 6 7 7 8 9 8 7 7 7 6 6 6 6 6 6
20 18 18 21 25 27 30 31 29 27 25 23 18 12 8 7 6 6 4 3 4 5 6 7 6 6 5 5 6 5 4 6 8 8 7 6 6 6 6 6 6 6 6
18 18 19 22 24 25 27 28 27 26 25 24 20 12 7 6 7 7 6 4 3 4 6 7 6 4 4 4 4 3 2 4 6 7 7 7 6 6 6 6 5 4 4
17 19 21 24 24 24 26 27 26 24 23 22 19 11 7 6 6 6 6 5 3 2 4 6 5 3 2 3 3 3 2 2 3 5 7 7 6 5 5 5 4 3 3
16 18 21 23 24 24 25 26 25 22 20 18 15 11 8 7 6 6 5 4 3 2 3 4 4 3 3 4 5 4 2 1 1 2 5 6 6 5 5 5 4 4 4
15 16 18 21 23 23 23 22 21 19 17 15 14 12 10 9 8 7 6 4 4 4 4 5 5 4 4 5 5 3 1 0 0 1 2 4 5 5 6 6 6 6 6
13 14 17 20 21 21 19 17 16 16 15 14 13 13 12 10 8 7 6 6 5 6 7 7 6 6 5 5 4 2 0 0 0 0 1 2 3 4 6 6 6 6 6
Wind_Speed
10 10 9 9 9 8 7 6 6 5 5 6 6 5 5 5 5 4 4 4 4 3 3 3 3 3 3 3 3 3 3 4 5 3 2 1 2 4 3 4 4 4 4
10 10 10 9 8 8 8 7 6 6 6 6 6 6 6 5 5 5 5 4 5 5 4 4 4 3 3 4 3 4 3 4 5 4 3 3 3 3 3 5 4 3 3
10 10 10 9 9 8 7 7 6 6 6 6 7 6 6 6 5 5 5 5 5 5 5 5 4 4 4 3 4 4 4 4 4 5 4 2 3 3 3 4 4 3 5
9 9 9 9 9 8 7 7 7 7 7 7 7 7 6 6 6 5 5 5 5 5 5 5 5 5 5 5 4 5 5 5 4 5 5 3 3 2 3 4 4 3 4
8 8 8 8 8 7 7 7 7 7 8 7 7 6 6 6 5 6 6 6 5 5 5 5 5 3 3 4 5 4 4 5 5 4 5 4 3 2 3 4 4 4 3
7 7 7 7 8 8 8 7 7 7 7 7 7 7 7 5 4 5 6 6 6 6 5 5 5 6 5 6 5 6 6 6 6 5 5 5 4 4 3 5 4 5 3
7 6 7 7 7 8 8 8 8 8 8 7 7 6 6 5 5 6 6 6 6 5 5 5 5 3 5 5 6 8 8 8 7 7 7 7 5 4 5 6 4 5 5
7 6 7 7 7 7 7 7 7 7 6 6 6 7 6 6 7 7 7 8 6 6 5 5 5 4 4 4 6 6 6 6 7 8 6 7 6 4 5 6 5 5 5
7 7 7 7 7 7 7 7 7 6 6 6 6 7 7 6 7 8 8 7 6 6 6 5 5 5 2 4 6 7 6 5 5 5 5 5 4 4 5 5 5 5 5
7 6 6 6 7 7 7 6 6 6 6 6 6 7 7 6 7 8 9 6 6 5 5 5 5 4 4 5 6 6 6 5 5 5 6 7 8 7 7 6 5 5 5
6 6 6 6 6 6 5 6 6 6 6 6 6 6 6 6 7 8 9 6 5 5 4 5 3 5 5 6 7 6 5 6 6 5 5 5 5 4 4 5 4 5 5
5 5 6 6 6 5 6 6 6 6 7 7 6 6 6 6 6 7 9 9 6 6 5 4 2 5 6 7 7 4 5 6 5 4 4 4 3 3 3 3 4 5 4
6 6 5 5 5 5 6 6 6 6 6 6 6 6 5 5 6 8 9 9 8 6 4 1 2 5 6 7 8 7 6 6 4 4 4 3 3 3 3 3 4 4 6
5 5 5 5 5 5 5 5 6 6 6 6 6 5 5 5 4 5 5 6 7 6 4 3 6 6 6 4 5 6 6 4 3 4 3 3 3 3 4 3 4 4 4
3 3 4 5 5 5 5 4 5 5 4 5 5 5 5 5 4 4 4 4 4 4 4 4 4 4 5 4 4 4 4 4 4 4 4 4 4 4 4 4 4 4 4
4 4 4 4 4 5 5 5 3 3 3 4 3 4 3 1 4 5 5 4 3 3 4 4 4 4 5 4 4 4 4 4 4 4 4 4 4 4 4 4 4 4 4
4 4 4 4 4 5 5 5 5 4 5 6 6 6 5 3 5 6 5 4 4 5 6 5 4 4 4 4 4 3 3 3 4 4 4 4 4 4 4 4 4 4 5
5 5 5 4 4 4 5 5 5 5 5 5 6 7 6 6 7 6 6 5 5 6 6 5 5 4 4 4 3 3 3 3 3 4 4 4 4 5 4 5 4 4 4
5 4 4 4 5 5 5 5 5 6 5 5 4 6 7 6 7 7 8 6 5 5 5 5 4 4 4 3 3 3 3 3 3 3 3 3 4 4 4 5 4 3 5
5 5 5 5 5 5 5 5 5 5 5 5 5 4 6 6 5 6 7 6 5 5 5 5 4 4 3 3 3 3 3 3 3 3 3 3 4 4 4 5 4 4 4
5 5 7 7 5 5 5 5 5 5 5 5 5 4 6 6 6 6 6 6 6 5 5 5 4 4 3 3 3 4 4 3 3 3 3 3 4 4 4 4 4 5 4
5 5 5 5 5 5 5 5 5 5 5 6 5 6 8 7 6 6 6 5 5 5 5 5 5 4 3 3 3 4 4 3 3 3 3 4 4 4 4 4 4 4 4
6 6 5 5 5 5 6 6 5 5 5 5 5 5 6 6 6 5 5 5 5 4 4 4 4 4 3 4 4 4 4 3 3 3 4 4 4 4 4 4 4 5 5
6 6 6 5 4 5 5 5 5 5 5 5 5 5 5 6 6 6 5 5 4 4 4 4 4 5 5 4 3 3 3 2 3 3 5 5 5 4 4 4 5 5 4
5 5 5 5 4 4 4 4 4 4 4 4 4 4 4 5 5 5 5 4 5 4 5 5 4 4 6 6 5 2 2 2 1 3 4 4 4 4 5 5 4 5 4
5 5 4 4 4 4 4 4 4 4 3 4 4 4 4 4 4 4 4 4 4 4 4 4 5 5 5 5 4 3 3 3 2 3 5 4 5 4 4 5 5 5 5
Wind_Direction
196 194 196 195 194 195 199 201 202 204 193 194 193 188 191 198 202 211 226 212 227 233 241 237 248 276 275 269 263 265 264 269 273 279 277 264 267 284 290 276 255 234 195
194 196 197 198 197 197 197 199 198 199 200 195 196 194 200 201 206 213 224 221 225 231 239 245 248 242 248 271 273 266 264 267 269 274 277 266 251 259 268 272 273 265 254
191 195 196 196 197 200 198 196 197 199 202 200 199 199 204 207 210 216 221 227 230 235 238 241 246 248 253 259 266 268 264 256 261 264 265 266 263 262 267 266 269 272 268
192 193 194 196 197 197 195 197 198 200 202 201 202 202 206 208 209 214 217 224 230 235 239 242 246 251 258 263 256 259 271 274 262 262 266 263 255 248 262 270 267 240 265
191 194 191 193 195 195 197 200 201 204 204 201 202 203 209 209 210 213 221 222 228 237 240 241 243 250 280 281 284 280 270 265 265 262 265 267 270 274 271 276 281 275 249
192 194 187 189 193 195 199 203 203 203 204 202 203 204 211 214 180 195 226 226 230 236 243 246 238 221 222 229 258 280 284 272 275 276 270 276 279 278 285 281 282 280 278
188 191 189 193 197 200 201 200 202 200 198 201 205 208 211 199 174 197 221 233 230 235 243 250 255 232 232 243 232 230 240 246 258 272 277 281 281 282 280 271 272 281 290
184 189 195 197 198 201 202 201 202 199 199 200 206 212 214 198 182 199 215 229 233 231 234 239 248 250 250 260 256 248 247 237 233 244 265 276 284 289 273 270 272 258 256
186 190 194 197 197 199 202 200 200 198 201 202 204 211 216 202 183 194 208 221 221 226 229 230 236 239 235 255 253 252 251 247 222 227 254 269 287 279 274 269 264 265 266
187 189 193 198 199 200 203 203 199 200 203 206 204 210 214 211 183 189 206 226 221 223 222 222 218 238 223 235 249 255 257 262 263 235 229 231 235 226 222 248 264 269 278
187 185 188 195 201 200 200 200 198 201 203 209 206 211 213 212 187 189 204 231 231 229 228 229 206 189 218 233 248 255 268 277 265 259 251 241 235 231 222 224 253 271 277
186 190 191 195 205 193 196 199 202 202 200 204 206 212 207 203 201 193 202 226 250 239 240 243 202 182 214 225 232 243 252 259 260 258 257 257 256 249 243 242 243 258 270
187 191 195 194 200 198 198 198 200 203 211 207 207 210 209 201 184 185 198 214 230 240 246 241 205 207 219 221 221 222 229 240 246 248 254 260 267 269 257 233 227 230 240
192 194 196 198 199 194 205 208 211 211 216 213 213 216 213 199 196 190 200 205 211 227 233 195 197 216 234 237 209 211 228 243 253 255 255 258 258 249 246 253 253 242 245
203 205 209 208 205 203 207 214 219 219 225 229 225 218 218 216 195 191 214 212 217 219 225 218 219 215 223 224 221 216 221 219 226 245 255 253 250 250 248 249 256 257 255
214 218 222 221 211 212 208 207 197 227 189 202 248 266 234 170 151 172 201 224 219 196 221 228 229 229 232 233 228 218 216 223 232 239 242 247 254 256 255 249 248 251 255
227 228 236 234 225 221 219 221 212 195 189 197 207 224 238 191 170 185 196 201 203 191 219 230 233 238 240 240 239 235 232 228 235 240 242 246 249 252 252 250 244 247 254
233 220 233 238 239 232 229 227 226 220 210 206 198 202 201 194 191 188 179 185 200 207 230 233 234 237 239 246 246 242 243 235 233 241 244 247 249 251 250 250 244 247 255
241 238 235 242 241 239 236 231 227 224 225 219 204 176 183 186 188 190 188 215 224 224 230 235 235 235 239 239 245 247 249 250 252 255 250 250 254 256 258 258 252 232 255
236 230 240 245 240 237 235 233 229 225 225 221 217 206 174 185 198 193 205 223 232 235 237 237 235 239 240 238 236 239 240 238 238 247 257 258 256 257 253 254 257 251 250
244 226 217 238 240 239 236 235 233 229 225 223 224 197 184 211 213 211 212 217 224 231 234 238 235 232 230 224 230 231 235 238 240 251 256 256 258 257 256 256 250 251 256
247 247 237 237 238 236 239 240 237 232 229 231 226 182 179 224 229 218 217 219 224 229 228 227 230 228 227 232 232 239 239 239 243 246 250 255 256 258 259 259 258 259 258
244 243 240 235 234 223 227 234 234 231 230 230 227 212 200 221 231 228 226 228 227 224 221 219 224 223 218 224 226 234 242 245 248 255 259 260 262 261 261 261 262 262 260
245 246 245 240 234 233 233 232 232 232 230 229 227 224 221 222 231 231 231 228 223 223 220 217 216 212 215 228 233 236 240 251 251 243 252 259 261 263 263 261 260 260 260
248 247 246 242 238 236 238 238 235 230 227 228 230 234 236 234 234 230 227 225 223 224 220 218 214 214 214 214 222 226 108 89 292 280 251 252 255 263 266 263 260 260 258
254 250 248 243 239 239 239 239 238 234 234 234 231 229 231 230 229 229 225 221 220 215 214 213 211 216 216 211 201 167 140 148 180 266 267 255 252 254 263 263 261 257 256